VK2OU Weather Reports


Display with metric or nautical units.
time (UTC)temp
F
wind
direction
speed
MPH
gust
MPH
rain 1hr
in
rain 24hr
in
rain mn
in
humidity
%
barometer
mb
20260902164534 52 273 3.0 7.0 0.00 0.00 0.00 97
20260902163528 52 273 2.0 6.0 0.00 0.00 0.00 97
20260902162533 52 262 2.0 5.0 0.00 0.00 0.00 97
20260902161545 52 260 2.0 6.0 0.00 0.00 0.00 96
20260902160533 52 265 1.0 5.0 0.00 0.00 0.00 96
20260902155525 53 269 2.0 3.0 0.00 0.00 0.00 96
20260902154533 53 241 0.0 2.0 0.00 0.00 0.00 95
20260902153525 53 250 1.0 3.0 0.00 0.00 0.00 95
20260902152533 53 249 0.0 2.0 0.00 0.00 0.00 95
20260902151525 53 272 1.0 3.0 0.00 0.00 0.00 95
20260902150533 53 248 2.0 8.0 0.00 0.00 0.00 95
20260902145545 53 267 3.0 6.0 0.00 0.00 0.00 96
20260902144553 53 264 3.0 6.0 0.00 0.00 0.00 96
20260902143526 53 265 3.0 6.0 0.00 0.00 0.00 95
20260902142533 53 277 3.0 7.0 0.00 0.00 0.00 95
20260902141525 53 274 4.0 8.0 0.00 0.00 0.00 95
20260902140533 54 279 5.0 10.0 0.00 0.00 0.00 94
20260902135627 54 278 6.0 11.0 0.00 0.00 0.00 93
20260902134653 54 282 6.0 13.0 0.00 0.00 0.00 92
20260902133525 54 284 6.0 11.0 0.00 0.00 0.00 90
20260902132533 55 276 8.0 17.0 0.00 0.00 0.00 86
20260902131545 57 281 7.0 15.0 0.00 0.00 0.00 81
20260902130533 57 267 9.0 17.0 0.00 0.00 0.00 79
20260902125545 56 256 9.0 16.0 0.00 0.00 0.00 82
20260902124533 55 278 6.0 13.0 0.00 0.00 0.00 84
20260902123525 55 271 5.0 10.0 0.00 0.00 0.00 85
20260902122533 55 289 3.0 8.0 0.00 0.00 0.00 86
20260902121524 55 276 2.0 5.0 0.00 0.00 0.00 86
20260902120533 55 262 2.0 5.0 0.00 0.00 0.00 85
20260902115525 55 267 2.0 3.0 0.00 0.00 0.00 84
20260902114533 55 266 2.0 5.0 0.00 0.00 0.00 84
20260902113526 56 244 1.0 2.0 0.00 0.00 0.00 83
20260902112533 56 263 2.0 6.0 0.00 0.00 0.00 82
20260902111545 56 275 2.0 6.0 0.00 0.00 0.00 81
20260902110533 56 279 2.0 7.0 0.00 0.00 0.00 81
20260902105525 56 275 4.0 7.0 0.00 0.00 0.00 80
20260902104553 56 270 3.0 7.0 0.00 0.00 0.00 80
20260902103545 56 273 3.0 7.0 0.00 0.00 0.00 79
20260902102533 57 268 2.0 6.0 0.00 0.00 0.00 78
20260902101526 57 258 1.0 3.0 0.00 0.00 0.00 77
20260902100533 56 264 2.0 6.0 0.00 0.00 0.00 77
20260902095526 57 240 0.0 2.0 0.00 0.00 0.00 76
20260902094533 57 270 1.0 2.0 0.00 0.00 0.00 75
20260902093526 57 257 1.0 3.0 0.00 0.00 0.00 74
20260902092553 57 265 2.0 6.0 0.00 0.00 0.00 73
20260902091525 58 280 4.0 10.0 0.00 0.00 0.00 72
20260902090533 58 277 4.0 8.0 0.00 0.00 0.00 71
20260902085525 58 271 5.0 10.0 0.00 0.00 0.00 70
20260902084533 58 272 6.0 16.0 0.00 0.00 0.00 69
20260902083545 58 262 5.0 10.0 0.00 0.00 0.00 69
20260902082533 58 279 5.0 9.0 0.00 0.00 0.00 68
20260902081525 58 280 6.0 13.0 0.00 0.00 0.00 68
20260902080533 59 275 2.0 7.0 0.00 0.00 0.00 67
20260902075525 59 281 3.0 8.0 0.00 0.00 0.00 65
20260902074549 60 275 5.0 13.0 0.00 0.00 0.00 64
20260902073527 60 288 6.0 10.0 0.00 0.00 0.00 63
20260902072533 60 279 4.0 9.0 0.00 0.00 0.00 63
20260902071525 61 251 3.0 7.0 0.00 0.00 0.00 62
20260902070549 62 272 4.0 8.0 0.00 0.00 0.00 59
20260902065547 63 272 6.0 11.0 0.00 0.00 0.00 56
20260902064553 63 263 5.0 15.0 0.00 0.00 0.00 55
20260902063525 64 269 7.0 19.0 0.00 0.00 0.00 54
20260902062533 64 274 7.0 14.0 0.00 0.00 0.00 55
20260902061525 64 272 7.0 16.0 0.00 0.00 0.00 53
20260902060534 65 264 10.0 16.0 0.00 0.00 0.00 52
20260902055526 65 261 5.0 10.0 0.00 0.00 0.00 52
20260902054533 66 260 7.0 16.0 0.00 0.00 0.00 52
20260902053527 65 262 7.0 16.0 0.00 0.00 0.00 51
20260902052549 65 270 8.0 22.0 0.00 0.00 0.00 52
20260902051525 65 253 5.0 11.0 0.00 0.00 0.00 52
20260902050533 64 250 3.0 8.0 0.00 0.00 0.00 54
20260902045526 64 263 8.0 17.0 0.00 0.00 0.00 54
20260902044534 65 259 8.0 14.0 0.00 0.00 0.00 52
20260902043546 65 270 6.0 16.0 0.00 0.00 0.00 52
20260902042533 65 253 7.0 19.0 0.00 0.00 0.00 52
20260902041525 64 258 7.0 17.0 0.00 0.00 0.00 52
20260902040534 65 260 9.0 18.0 0.00 0.00 0.00 49
20260902035525 66 274 8.0 22.0 0.00 0.00 0.00 50
20260902034533 67 269 9.0 22.0 0.00 0.00 0.00 48
20260902033525 66 252 6.0 15.0 0.00 0.00 0.00 49
20260902032533 66 266 9.0 21.0 0.00 0.00 0.00 50
20260902031526 66 256 6.0 14.0 0.00 0.00 0.00 54
20260902030550 66 266 9.0 17.0 0.00 0.00 0.00 56
20260902025525 66 292 6.0 15.0 0.00 0.00 0.00 58
20260902024534 65 286 5.0 15.0 0.00 0.00 0.00 58
20260902023525 64 274 7.0 13.0 0.00 0.00 0.00 59
20260902022534 65 279 7.0 15.0 0.00 0.00 0.00 58
20260902021526 64 264 7.0 16.0 0.00 0.00 0.00 58
20260902020533 64 278 7.0 16.0 0.00 0.00 0.00 59
20260902015526 64 271 10.0 23.0 0.00 0.00 0.00 58
20260902014534 64 273 8.0 19.0 0.00 0.00 0.00 59
20260902013525 63 266 7.0 17.0 0.00 0.00 0.00 61
20260902012533 63 261 7.0 21.0 0.00 0.00 0.00 62
20260902011546 63 271 8.0 14.0 0.00 0.00 0.00 61
20260902010553 62 272 7.0 13.0 0.00 0.00 0.00 60
20260902005526 62 282 6.0 14.0 0.00 0.00 0.00 61
20260902004534 63 271 5.0 14.0 0.00 0.00 0.00 61
20260902003525 62 279 5.0 11.0 0.00 0.00 0.00 62
20260902002534 62 273 5.0 10.0 0.00 0.00 0.00 62
20260902001526 61 287 6.0 14.0 0.00 0.00 0.00 63
20260902000534 61 279 4.0 10.0 0.00 0.00 0.00 64
20260901235526 61 305 3.0 6.0 0.00 0.00 0.00 64
20260901234534 61 307 3.0 6.0 0.00 0.00 0.00 65
20260901233526 60 314 3.0 7.0 0.00 0.00 0.00 66
20260901232534 60 294 3.0 7.0 0.00 0.00 0.00 67
20260901231527 59 283 4.0 7.0 0.00 0.00 0.00 68
20260901230534 58 282 5.0 10.0 0.00 0.00 0.00 70
20260901225546 57 287 4.0 9.0 0.00 0.00 0.00 72
20260901224614 56 273 5.0 10.0 0.00 0.00 0.00 73
20260901223526 56 281 6.0 13.0 0.00 0.00 0.00 74
20260901222534 55 277 6.0 15.0 0.00 0.00 0.00 74
20260901221527 55 284 6.0 11.0 0.00 0.00 0.00 75
20260901220534 55 281 7.0 14.0 0.00 0.00 0.00 76
20260901215546 54 281 5.0 10.0 0.00 0.00 0.00 77
20260901214533 54 275 3.0 11.0 0.00 0.00 0.00 78
20260901213526 53 278 4.0 13.0 0.00 0.00 0.00 79
20260901212554 54 269 3.0 7.0 0.00 0.00 0.00 79
20260901211548 53 210 0.0 1.0 0.00 0.00 0.00 81
20260901210555 52 230 0.0 3.0 0.00 0.00 0.00 84
20260901205608 50 189 0.0 1.0 0.00 0.00 0.00 88
20260901204534 49 0.0 0.0 0.00 0.00 0.00 91
20260901203526 48 0.0 0.0 0.00 0.00 0.00 90
20260901202534 49 0.0 0.0 0.00 0.00 0.00 89
20260901201526 50 233 0.0 1.0 0.00 0.00 0.00 86
20260901200534 50 246 1.0 3.0 0.00 0.00 0.00 85
20260901195526 51 259 2.0 6.0 0.00 0.00 0.00 85
20260901194554 51 281 3.0 6.0 0.00 0.00 0.00 84
20260901193526 51 279 3.0 7.0 0.00 0.00 0.00 83
20260901192534 51 284 3.0 8.0 0.00 0.00 0.00 84
20260901191526 51 287 4.0 9.0 0.00 0.00 0.00 85
20260901190534 51 276 3.0 8.0 0.00 0.00 0.00 84
20260901185526 51 269 3.0 5.0 0.00 0.00 0.00 84
20260901184534 52 268 2.0 5.0 0.00 0.00 0.00 83
20260901183526 52 279 5.0 9.0 0.00 0.00 0.00 83
20260901182533 52 269 5.0 11.0 0.00 0.00 0.00 83
20260901181526 52 279 4.0 9.0 0.00 0.00 0.00 81
20260901180534 52 286 4.0 7.0 0.00 0.00 0.00 80
20260901175526 52 274 3.0 7.0 0.00 0.00 0.00 79
20260901174614 53 277 2.0 6.0 0.00 0.00 0.00 79
20260901173526 53 278 1.0 3.0 0.00 0.00 0.00 79
20260901172534 53 312 2.0 5.0 0.00 0.00 0.00 78
20260901171527 53 285 4.0 11.0 0.00 0.00 0.00 77
20260901170534 53 273 3.0 8.0 0.00 0.00 0.00 77
20260901165525 53 270 3.0 6.0 0.00 0.00 0.00 78